Regional Weather Roundup
Issued by NWS New Orleans/Baton Rouge, LA

Home | Current Version | Previous Version | Graphics & Text | Print | Product List | Glossary On
Versions: 1 2 3 4 5 6 7 8 9 10 11 12 13 14 15 16 17 18 19 20 21 22 23 24 25 26 27 28 29 30 31 32 33 34 35 36 37 38 39 40 41 42 43 44 45 46 47 48 49 50
753
ASUS44 KLIX 192201
RWRLIX
NEW ORLEANS REGIONAL WEATHER ROUNDUP
NATIONAL WEATHER SERVICE NEW ORLEANS LA
400 PM CST FRI DEC 19 2014

NOTE: "FAIR" INDICATES FEW OR NO CLOUDS BELOW 12,000 FEET WITH NO
      SIGNIFICANT WEATHER AND/OR OBSTRUCTIONS TO VISIBILITY.
      SKY/WX - SKY CONDITION AND SIGNIFICANT WEATHER.
      TMP - AIR TEMPERATURE.     DP    - DEWPOINT TEMPERATURE.
      RH  - RELATIVE HUMIDITY.   PRES  - PRESSURE.
      HI  - HEAT INDEX.          WCI   - WIND CHILL INDEX.

*  THESE STATIONS ARE NOT NWS OR FAA STATIONS AND ARE NOT UNDER
   NWS QUALITY CONTROL.

LAZ038-040-048-061>063-065>067-069-192300-
SOUTHEAST LOUISIANA

CITY           SKY/WX    TMP DP  RH WIND       PRES   REMARKS
N.O. AUDUBON     N/A     53  53 100 MISG        N/A
N.O. INTL ARPT RAIN      53  51  93 NE13      30.05S FOG
N.O. LAKEFRONT RAIN      53  50  89 NE20      30.06F FOG
N.O. DOWNTOWN* CLOUDY    52  46  82 NE13G18   30.04F
SLIDELL        LGT RAIN  49  46  90 NE8       30.07F FOG
BATON ROUGE    RAIN      48  46  93 NE10      30.07S FOG
BOOTHVILLE     CLOUDY    59  59 100 CALM      30.03F FOG
BELLE CHASSE   RAIN      53  51  93 NE14      30.03F FOG
BOGALUSA*      RAIN      48  45  88 NE7       30.11S
GALLIANO*      NOT AVBL
NEW ROADS*     NOT AVBL
GONZALES*      NOT AVBL
HAMMOND*       NOT AVBL
HOUMA*         NOT AVBL
PORT FOURCHON* CLOUDY    61  59  94 NE10      30.04F

$$

MSZ070-080>082-192300-
SOUTHERN MISSISSIPPI

CITY           SKY/WX    TMP DP  RH WIND       PRES   REMARKS
MCCOMB         LGT RAIN  45  42  89 NE5       30.10R
GULFPORT       LGT RAIN  50  48  93 NE10      30.07F FOG
BILOXI         HVY RAIN  50  50 100 NE10      30.08S FOG
PASCAGOULA     RAIN      50  48  93 NE9       30.09F FOG
STENNIS ARPT*  LGT RAIN  48  46  93 N9        30.09S FOG

$$

COASTAL OBSERVATIONS
LAKE AND NEARSHORE STATIONS

STATION/POSITION TIME  TEMP    WIND        PRES    WAVE
                       AIR SEA DIR/SP/G            HT/PER
                 (UTC) (F)     (DEG/KT/KT) (MB)    (FT/S)
PASCAGOULA       2100   52      20/  8/ 12 1018.4
WAVELAND YACHT   2100   50      40/ 12/ 14 1017.4
GRAND ISLE       2100   60 62   40/  9/ 15 1016.7
SOUTHWEST PASS   2100   61                 1016.9
NEW CANAL        2100   53 57   50/ 17/ 19 1017.9
SHELL BEACH      2100   54 59   40/ 15/ 17 1017.5

OFFSHORE STATIONS

STATION/POSITION TIME  TEMP    WIND        PRES    WAVE
                       AIR SEA DIR/SP/G            HT/PER
                 (UTC) (F)     (DEG/KT/KT) (MB)    (FT/S)
64 S DAUPHIN ISL 2200   68 74  120/ 21/ 23 1015.8    5/ 6

$$




USA.gov is the U.S. government's official web portal to all federal, state and local government web resources and services.